Location: Auckland
(36.8670°S, 174.7670°E)
Time: 14:27:22
(UTC+12:00)

Courier 1B Rocket - Pass Details

Date: 23 July 2019
Orbit: 920 x 1202 km, 28.3° (Epoch: 20 August)

Event Time Altitude Azimuth Distance (km) Brightness Sun altitude
Rises 02:06:27 0° 331° (NNW) 4,081 - -62.8°
Reaches altitude 10° 02:10:29 10° 350° (N) 3,129 - -62.1°
Maximum altitude 02:15:09 17° 27° (NNE) 2,629 - -61.3°
Drops below altitude 10° 02:19:47 10° 64° (ENE) 3,106 - -60.4°
Exits shadow 02:23:03 - 80° (E) 3,856 8.4 -59.9°
Sets 02:23:44 0° 83° (E) 4,037 8.6 -59.7°
